Time,TemperatureF,DewpointF,PressureIn,WindDirection,WindDirectionDegrees,WindSpeedMPH,WindSpeedGustMPH,Humidity,HourlyPrecipIn,Conditions,Clouds,dailyrainin,SoftwareType,DateUTC
2013-05-31 00:01:00,53.0,47.0,30.23,WNW,296,0.0,-999.0,80,-99.99,,,-99.99,,2013-05-31 07:01:00,
2013-05-31 00:11:00,53.0,47.0,30.23,WNW,296,0.0,-999.0,80,-99.99,,,-99.99,,2013-05-31 07:11:00,
2013-05-31 00:21:00,53.0,47.0,30.24,WNW,284,0.0,-999.0,81,-99.99,,,-99.99,,2013-05-31 07:21:00,
2013-05-31 00:31:00,53.0,47.0,30.24,West,261,0.0,-999.0,81,-99.99,,,-99.99,,2013-05-31 07:31:00,
2013-05-31 00:41:00,53.0,47.0,30.24,West,261,0.0,-999.0,81,-99.99,,,-99.99,,2013-05-31 07:41:00,
2013-05-31 00:52:00,53.0,47.0,30.24,NW,304,0.0,-999.0,80,-99.99,,,-99.99,,2013-05-31 07:52:00,
2013-05-31 01:01:00,53.0,47.0,30.24,WNW,297,0.0,-999.0,80,-99.99,,,-99.99,,2013-05-31 08:01:00,
2013-05-31 01:11:00,53.0,47.0,30.24,WNW,297,0.0,-999.0,80,-99.99,,,-99.99,,2013-05-31 08:11:00,
2013-05-31 01:21:00,53.0,47.0,30.24,West,268,0.0,-999.0,79,-99.99,,,-99.99,,2013-05-31 08:21:00,
2013-05-31 01:31:00,53.0,47.0,30.24,West,267,0.0,-999.0,80,-99.99,,,-99.99,,2013-05-31 08:31:00,
2013-05-31 01:42:00,53.0,47.0,30.24,West,267,0.0,-999.0,80,-99.99,,,-99.99,,2013-05-31 08:42:00,
2013-05-31 01:51:00,53.0,47.0,30.25,West,269,0.0,-999.0,80,-99.99,,,-99.99,,2013-05-31 08:51:00,
2013-05-31 02:01:00,53.0,47.0,30.25,West,269,0.0,-999.0,80,-99.99,,,-99.99,,2013-05-31 09:01:00,
2013-05-31 02:11:00,53.0,47.0,30.25,West,269,0.0,-999.0,80,-99.99,,,-99.99,,2013-05-31 09:11:00,
2013-05-31 02:21:00,53.0,47.0,30.25,West,269,0.0,-999.0,80,-99.99,,,-99.99,,2013-05-31 09:21:00,
2013-05-31 02:32:00,52.0,46.0,30.25,West,269,0.0,-999.0,81,-99.99,,,-99.99,,2013-05-31 09:32:00,
2013-05-31 02:42:00,52.0,46.0,30.25,West,269,0.0,-999.0,81,-99.99,,,-99.99,,2013-05-31 09:42:00,
2013-05-31 02:53:00,52.0,47.0,30.25,West,269,0.0,-999.0,82,-99.99,,,-99.99,,2013-05-31 09:53:00,
2013-05-31 03:02:00,51.0,46.0,30.25,West,269,0.0,-999.0,82,-99.99,,,-99.99,,2013-05-31 10:02:00,
2013-05-31 03:12:00,51.0,46.0,30.25,West,269,0.0,-999.0,83,-99.99,,,-99.99,,2013-05-31 10:12:00,
2013-05-31 03:22:00,51.0,46.0,30.25,West,269,0.0,-999.0,83,-99.99,,,-99.99,,2013-05-31 10:22:00,
2013-05-31 03:32:00,51.0,46.0,30.25,West,269,0.0,-999.0,83,-99.99,,,-99.99,,2013-05-31 10:32:00,
2013-05-31 03:42:00,51.0,46.0,30.25,West,269,0.0,-999.0,83,-99.99,,,-99.99,,2013-05-31 10:42:00,
2013-05-31 03:52:00,50.0,45.0,30.25,West,269,0.0,-999.0,84,-99.99,,,-99.99,,2013-05-31 10:52:00,
2013-05-31 04:01:00,50.0,45.0,30.25,West,269,0.0,-999.0,84,-99.99,,,-99.99,,2013-05-31 11:01:00,
2013-05-31 04:11:00,50.0,45.0,30.25,West,269,0.0,-999.0,84,-99.99,,,-99.99,,2013-05-31 11:11:00,
2013-05-31 04:22:00,49.0,45.0,30.24,West,269,0.0,-999.0,85,-99.99,,,-99.99,,2013-05-31 11:22:00,
2013-05-31 04:32:00,49.0,45.0,30.25,West,269,0.0,-999.0,85,-99.99,,,-99.99,,2013-05-31 11:32:00,
2013-05-31 04:41:00,49.0,45.0,30.25,West,269,0.0,-999.0,85,-99.99,,,-99.99,,2013-05-31 11:41:00,
2013-05-31 04:52:00,48.0,44.0,30.26,West,269,0.0,-999.0,86,-99.99,,,-99.99,,2013-05-31 11:52:00,
2013-05-31 05:01:00,47.0,43.0,30.25,West,269,0.0,-999.0,86,-99.99,,,-99.99,,2013-05-31 12:01:00,
2013-05-31 05:11:00,47.0,43.0,30.25,West,269,0.0,-999.0,86,-99.99,,,-99.99,,2013-05-31 12:11:00,
2013-05-31 05:21:00,47.0,43.0,30.26,West,269,0.0,-999.0,87,-99.99,,,-99.99,,2013-05-31 12:21:00,
2013-05-31 05:31:00,47.0,44.0,30.26,West,269,0.0,-999.0,88,-99.99,,,-99.99,,2013-05-31 12:31:00,
2013-05-31 05:41:00,47.0,44.0,30.26,West,269,0.0,-999.0,88,-99.99,,,-99.99,,2013-05-31 12:41:00,
2013-05-31 05:52:00,46.0,43.0,30.26,West,269,0.0,-999.0,89,-99.99,,,-99.99,,2013-05-31 12:52:00,
2013-05-31 06:01:00,46.0,43.0,30.26,West,269,0.0,-999.0,89,-99.99,,,-99.99,,2013-05-31 13:01:00,
2013-05-31 06:11:00,46.0,43.0,30.26,West,269,0.0,-999.0,89,-99.99,,,-99.99,,2013-05-31 13:11:00,
2013-05-31 06:21:00,45.0,42.0,30.27,West,269,0.0,-999.0,89,-99.99,,,-99.99,,2013-05-31 13:21:00,
2013-05-31 06:32:00,45.0,42.0,30.27,West,269,0.0,-999.0,89,-99.99,,,-99.99,,2013-05-31 13:32:00,
2013-05-31 06:42:00,45.0,42.0,30.27,West,269,0.0,-999.0,89,-99.99,,,-99.99,,2013-05-31 13:42:00,
2013-05-31 06:52:00,45.0,42.0,30.27,West,269,0.0,-999.0,90,-99.99,,,-99.99,,2013-05-31 13:52:00,
2013-05-31 07:02:00,46.0,44.0,30.27,West,269,0.0,-999.0,91,-99.99,,,-99.99,,2013-05-31 14:02:00,
2013-05-31 07:11:00,46.0,44.0,30.27,West,269,0.0,-999.0,91,-99.99,,,-99.99,,2013-05-31 14:11:00,
2013-05-31 07:21:00,47.0,45.0,30.28,West,269,0.0,-999.0,94,-99.99,,,-99.99,,2013-05-31 14:21:00,
2013-05-31 07:31:00,47.0,45.0,30.28,West,269,0.0,-999.0,94,-99.99,,,-99.99,,2013-05-31 14:31:00,
2013-05-31 07:41:00,47.0,45.0,30.28,West,269,0.0,-999.0,94,-99.99,,,-99.99,,2013-05-31 14:41:00,
2013-05-31 07:52:00,48.0,46.0,30.28,West,269,0.0,-999.0,94,-99.99,,,-99.99,,2013-05-31 14:52:00,
2013-05-31 08:01:00,49.0,47.0,30.28,West,269,0.0,-999.0,93,-99.99,,,-99.99,,2013-05-31 15:01:00,
2013-05-31 08:11:00,49.0,47.0,30.28,West,269,0.0,-999.0,93,-99.99,,,-99.99,,2013-05-31 15:11:00,
2013-05-31 08:21:00,50.0,47.0,30.28,West,269,0.0,-999.0,91,-99.99,,,-99.99,,2013-05-31 15:21:00,
2013-05-31 08:32:00,51.0,48.0,30.28,West,269,0.0,-999.0,88,-99.99,,,-99.99,,2013-05-31 15:32:00,
2013-05-31 08:42:00,51.0,48.0,30.28,West,269,0.0,-999.0,88,-99.99,,,-99.99,,2013-05-31 15:42:00,
2013-05-31 08:53:00,53.0,48.0,30.29,East,79,0.0,-999.0,82,-99.99,,,-99.99,,2013-05-31 15:53:00,
2013-05-31 09:03:00,54.0,48.0,30.29,ENE,57,1.0,-999.0,80,-99.99,,,-99.99,,2013-05-31 16:03:00,
2013-05-31 09:12:00,55.0,48.0,30.29,NNE,27,0.0,-999.0,76,-99.99,,,-99.99,,2013-05-31 16:12:00,
2013-05-31 09:22:00,55.0,48.0,30.29,NNE,27,0.0,-999.0,76,-99.99,,,-99.99,,2013-05-31 16:22:00,
2013-05-31 09:33:00,56.0,47.0,30.29,NE,36,1.0,-999.0,73,-99.99,,,-99.99,,2013-05-31 16:33:00,
2013-05-31 09:41:00,56.0,47.0,30.29,NE,36,1.0,-999.0,73,-99.99,,,-99.99,,2013-05-31 16:41:00,
2013-05-31 09:52:00,58.0,48.0,30.28,NE,44,2.0,-999.0,70,-99.99,,,-99.99,,2013-05-31 16:52:00,
2013-05-31 10:02:00,59.0,48.0,30.28,NE,54,2.0,-999.0,66,-99.99,,,-99.99,,2013-05-31 17:02:00,
2013-05-31 10:12:00,59.0,48.0,30.28,NE,54,2.0,-999.0,66,-99.99,,,-99.99,,2013-05-31 17:12:00,
2013-05-31 10:22:00,61.0,48.0,30.28,East,96,4.0,-999.0,62,-99.99,,,-99.99,,2013-05-31 17:22:00,
2013-05-31 10:31:00,63.0,48.0,30.28,ENE,78,3.0,-999.0,59,-99.99,,,-99.99,,2013-05-31 17:31:00,
2013-05-31 10:42:00,63.0,48.0,30.28,ENE,78,3.0,-999.0,59,-99.99,,,-99.99,,2013-05-31 17:42:00,
2013-05-31 10:52:00,63.0,49.0,30.28,East,98,2.0,-999.0,60,-99.99,,,-99.99,,2013-05-31 17:52:00,
2013-05-31 11:01:00,64.0,48.0,30.27,SW,236,3.0,-999.0,57,-99.99,,,-99.99,,2013-05-31 18:01:00,
2013-05-31 11:11:00,64.0,48.0,30.27,SW,236,3.0,-999.0,57,-99.99,,,-99.99,,2013-05-31 18:11:00,
2013-05-31 11:21:00,66.0,49.0,30.27,ENE,59,3.0,-999.0,54,-99.99,,,-99.99,,2013-05-31 18:21:00,
2013-05-31 11:31:00,66.0,47.0,30.27,NNE,18,3.0,-999.0,51,-99.99,,,-99.99,,2013-05-31 18:31:00,
2013-05-31 11:41:00,66.0,47.0,30.27,NNE,18,3.0,-999.0,51,-99.99,,,-99.99,,2013-05-31 18:41:00,
2013-05-31 11:52:00,68.0,48.0,30.28,NNE,12,2.0,-999.0,49,-99.99,,,-99.99,,2013-05-31 18:52:00,
2013-05-31 12:01:00,67.0,47.0,30.28,ENE,71,3.0,-999.0,49,-99.99,,,-99.99,,2013-05-31 19:01:00,
2013-05-31 12:11:00,67.0,47.0,30.28,ENE,71,3.0,-999.0,49,-99.99,,,-99.99,,2013-05-31 19:11:00,
2013-05-31 12:22:00,66.0,46.0,30.27,ESE,121,0.0,-999.0,49,-99.99,,,-99.99,,2013-05-31 19:22:00,
2013-05-31 12:31:00,68.0,46.0,30.27,ENE,69,1.0,-999.0,46,-99.99,,,-99.99,,2013-05-31 19:31:00,
2013-05-31 12:41:00,68.0,46.0,30.27,ENE,69,1.0,-999.0,46,-99.99,,,-99.99,,2013-05-31 19:41:00,
2013-05-31 12:52:00,66.0,47.0,30.26,NNW,344,3.0,-999.0,50,-99.99,,,-99.99,,2013-05-31 19:52:00,
2013-05-31 13:01:00,65.0,45.0,30.26,NNE,32,4.0,-999.0,48,-99.99,,,-99.99,,2013-05-31 20:01:00,
2013-05-31 13:11:00,65.0,45.0,30.26,NNE,32,4.0,-999.0,48,-99.99,,,-99.99,,2013-05-31 20:11:00,
2013-05-31 13:22:00,66.0,46.0,30.25,North,5,1.0,-999.0,49,-99.99,,,-99.99,,2013-05-31 20:22:00,
2013-05-31 13:31:00,67.0,47.0,30.25,NNW,348,4.0,-999.0,49,-99.99,,,-99.99,,2013-05-31 20:31:00,
2013-05-31 13:41:00,67.0,47.0,30.25,NNW,348,4.0,-999.0,49,-99.99,,,-99.99,,2013-05-31 20:41:00,
2013-05-31 13:52:00,68.0,47.0,30.25,WSW,252,2.0,-999.0,47,-99.99,,,-99.99,,2013-05-31 20:52:00,
2013-05-31 14:01:00,69.0,47.0,30.25,NW,317,3.0,-999.0,45,-99.99,,,-99.99,,2013-05-31 21:01:00,
2013-05-31 14:11:00,69.0,47.0,30.25,NW,317,3.0,-999.0,45,-99.99,,,-99.99,,2013-05-31 21:11:00,
2013-05-31 14:22:00,69.0,47.0,30.24,North,11,3.0,-999.0,45,-99.99,,,-99.99,,2013-05-31 21:22:00,
2013-05-31 14:32:00,70.0,47.0,30.24,NW,321,2.0,-999.0,44,-99.99,,,-99.99,,2013-05-31 21:32:00,
2013-05-31 14:42:00,70.0,47.0,30.24,ENE,69,2.0,-999.0,44,-99.99,,,-99.99,,2013-05-31 21:42:00,
2013-05-31 14:54:00,70.0,47.0,30.24,ENE,69,2.0,-999.0,44,-99.99,,,-99.99,,2013-05-31 21:54:00,
2013-05-31 15:02:00,70.0,46.0,30.24,NNE,26,3.0,-999.0,43,-99.99,,,-99.99,,2013-05-31 22:02:00,
2013-05-31 15:12:00,70.0,46.0,30.24,NNE,26,3.0,-999.0,43,-99.99,,,-99.99,,2013-05-31 22:12:00,
2013-05-31 15:22:00,70.0,46.0,30.23,NNE,29,3.0,-999.0,43,-99.99,,,-99.99,,2013-05-31 22:22:00,
2013-05-31 15:33:00,70.0,46.0,30.23,NW,326,2.0,-999.0,43,-99.99,,,-99.99,,2013-05-31 22:33:00,
2013-05-31 15:41:00,69.0,47.0,30.23,NW,309,3.0,-999.0,45,-99.99,,,-99.99,,2013-05-31 22:41:00,
2013-05-31 15:52:00,69.0,47.0,30.23,NW,309,3.0,-999.0,45,-99.99,,,-99.99,,2013-05-31 22:52:00,
2013-05-31 16:02:00,69.0,47.0,30.22,North,11,3.0,-999.0,46,-99.99,,,-99.99,,2013-05-31 23:02:00,
2013-05-31 16:12:00,69.0,47.0,30.22,North,11,3.0,-999.0,46,-99.99,,,-99.99,,2013-05-31 23:12:00,
2013-05-31 16:21:00,69.0,46.0,30.22,North,10,3.0,-999.0,44,-99.99,,,-99.99,,2013-05-31 23:21:00,
2013-05-31 16:32:00,69.0,47.0,30.22,NE,47,3.0,-999.0,46,-99.99,,,-99.99,,2013-05-31 23:32:00,
2013-05-31 16:42:00,69.0,46.0,30.22,NNE,23,4.0,-999.0,44,-99.99,,,-99.99,,2013-05-31 23:42:00,
2013-05-31 16:52:00,69.0,46.0,30.22,NNE,23,4.0,-999.0,44,-99.99,,,-99.99,,2013-05-31 23:52:00,
2013-05-31 17:01:00,69.0,46.0,30.21,NE,52,2.0,-999.0,44,-99.99,,,-99.99,,2013-06-01 00:01:00,
2013-05-31 17:11:00,69.0,46.0,30.21,NNW,342,4.0,-999.0,44,-99.99,,,-99.99,,2013-06-01 00:11:00,
2013-05-31 17:21:00,69.0,46.0,30.21,NNW,342,4.0,-999.0,44,-99.99,,,-99.99,,2013-06-01 00:21:00,
2013-05-31 17:31:00,69.0,47.0,30.21,NNE,24,5.0,-999.0,45,-99.99,,,-99.99,,2013-06-01 00:31:00,
2013-05-31 17:42:00,69.0,46.0,30.21,North,355,6.0,-999.0,44,-99.99,,,-99.99,,2013-06-01 00:42:00,
2013-05-31 17:52:00,69.0,46.0,30.21,North,355,6.0,-999.0,44,-99.99,,,-99.99,,2013-06-01 00:52:00,
2013-05-31 18:01:00,68.0,46.0,30.20,ENE,67,5.0,-999.0,45,-99.99,,,-99.99,,2013-06-01 01:01:00,
2013-05-31 18:11:00,68.0,45.0,30.21,NNE,33,4.0,-999.0,44,-99.99,,,-99.99,,2013-06-01 01:11:00,
2013-05-31 18:21:00,68.0,45.0,30.21,NNE,33,4.0,-999.0,44,-99.99,,,-99.99,,2013-06-01 01:21:00,
2013-05-31 18:31:00,68.0,45.0,30.20,ENE,70,6.0,-999.0,44,-99.99,,,-99.99,,2013-06-01 01:31:00,
2013-05-31 18:42:00,68.0,46.0,30.20,North,355,5.0,-999.0,46,-99.99,,,-99.99,,2013-06-01 01:42:00,
2013-05-31 18:52:00,68.0,46.0,30.20,North,355,5.0,-999.0,46,-99.99,,,-99.99,,2013-06-01 01:52:00,
2013-05-31 19:01:00,67.0,46.0,30.20,NNE,22,4.0,-999.0,46,-99.99,,,-99.99,,2013-06-01 02:01:00,
2013-05-31 19:11:00,67.0,46.0,30.19,North,9,3.0,-999.0,47,-99.99,,,-99.99,,2013-06-01 02:11:00,
2013-05-31 19:21:00,67.0,46.0,30.19,North,9,3.0,-999.0,47,-99.99,,,-99.99,,2013-06-01 02:21:00,
2013-05-31 19:31:00,67.0,46.0,30.19,NE,56,4.0,-999.0,47,-99.99,,,-99.99,,2013-06-01 02:31:00,
2013-05-31 19:41:00,66.0,46.0,30.20,NNW,335,3.0,-999.0,48,-99.99,,,-99.99,,2013-06-01 02:41:00,
2013-05-31 19:52:00,66.0,46.0,30.20,NNW,335,3.0,-999.0,48,-99.99,,,-99.99,,2013-06-01 02:52:00,
2013-05-31 20:01:00,66.0,46.0,30.20,NNW,335,3.0,-999.0,48,-99.99,,,-99.99,,2013-06-01 03:01:00,
2013-05-31 20:11:00,66.0,46.0,30.19,NE,51,2.0,-999.0,48,-99.99,,,-99.99,,2013-06-01 03:11:00,
2013-05-31 20:21:00,66.0,46.0,30.19,NE,51,2.0,-999.0,48,-99.99,,,-99.99,,2013-06-01 03:21:00,
2013-05-31 20:33:00,66.0,46.0,30.20,NE,43,2.0,-999.0,49,-99.99,,,-99.99,,2013-06-01 03:33:00,
2013-05-31 20:43:00,65.0,46.0,30.20,NNW,343,1.0,-999.0,50,-99.99,,,-99.99,,2013-06-01 03:43:00,
2013-05-31 20:53:00,65.0,46.0,30.20,NNW,343,1.0,-999.0,50,-99.99,,,-99.99,,2013-06-01 03:53:00,
2013-05-31 21:02:00,65.0,47.0,30.19,NNW,343,0.0,-999.0,53,-99.99,,,-99.99,,2013-06-01 04:02:00,
2013-05-31 21:12:00,63.0,48.0,30.20,NNW,343,0.0,-999.0,57,-99.99,,,-99.99,,2013-06-01 04:12:00,
2013-05-31 21:22:00,63.0,48.0,30.20,NNW,343,0.0,-999.0,57,-99.99,,,-99.99,,2013-06-01 04:22:00,
2013-05-31 21:33:00,62.0,47.0,30.20,WSW,247,0.0,-999.0,59,-99.99,,,-99.99,,2013-06-01 04:33:00,
2013-05-31 21:42:00,60.0,48.0,30.21,WSW,247,0.0,-999.0,64,-99.99,,,-99.99,,2013-06-01 04:42:00,
2013-05-31 21:53:00,60.0,48.0,30.21,WSW,247,0.0,-999.0,64,-99.99,,,-99.99,,2013-06-01 04:53:00,
2013-05-31 22:02:00,59.0,47.0,30.21,WSW,247,0.0,-999.0,65,-99.99,,,-99.99,,2013-06-01 05:02:00,
2013-05-31 22:12:00,59.0,47.0,30.21,WSW,247,0.0,-999.0,65,-99.99,,,-99.99,,2013-06-01 05:12:00,
2013-05-31 22:22:00,57.0,48.0,30.21,West,259,0.0,-999.0,71,-99.99,,,-99.99,,2013-06-01 05:22:00,
2013-05-31 22:32:00,57.0,48.0,30.22,West,259,0.0,-999.0,73,-99.99,,,-99.99,,2013-06-01 05:32:00,
2013-05-31 22:42:00,56.0,48.0,30.22,WSW,240,0.0,-999.0,74,-99.99,,,-99.99,,2013-06-01 05:42:00,
2013-05-31 22:52:00,56.0,48.0,30.22,WSW,240,0.0,-999.0,74,-99.99,,,-99.99,,2013-06-01 05:52:00,
2013-05-31 23:01:00,55.0,47.0,30.21,WSW,240,0.0,-999.0,75,-99.99,,,-99.99,,2013-06-01 06:01:00,
2013-05-31 23:12:00,55.0,48.0,30.21,WSW,240,0.0,-999.0,78,-99.99,,,-99.99,,2013-06-01 06:12:00,
2013-05-31 23:22:00,55.0,48.0,30.21,WSW,240,0.0,-999.0,78,-99.99,,,-99.99,,2013-06-01 06:22:00,
2013-05-31 23:32:00,54.0,48.0,30.21,WSW,240,0.0,-999.0,79,-99.99,,,-99.99,,2013-06-01 06:32:00,
2013-05-31 23:41:00,54.0,48.0,30.21,WSW,240,0.0,-999.0,80,-99.99,,,-99.99,,2013-06-01 06:41:00,
2013-05-31 23:52:00,54.0,48.0,30.21,WSW,240,0.0,-999.0,80,-99.99,,,-99.99,,2013-06-01 06:52:00,